STARLINK-11433, 62008

Orbit data source: Space-Track

STARLINK-11433, 62008 is a payload satellite owned by SpaceX/Seattle (US) in LEO that was launched on Mon, 18 Nov 2024 UTC via an FALCON 9 launch vehicle from the Air Force Western Test Range (AFWTR). Payload-class satellites include a variety of spacecraft equipped with specific instruments for various scientific and technological missions. These include communications satellites like Starlink; space stations such as the ISS; scientific satellites like the Hubble; Earth observation satellites from companies like Planet Labs, Umbra, and HawkEye 360; GPS; miniature CubeSats for education and research; and military/defense satellites.

Loading next visibility...
Identifier
62008, 2024-213A
Orbit
LEO
Last TLE update
15 hours ago
Origin
Manufacturer
SpaceX/Seattle
Mission
Operational Commercial Communications
Bus & Motor
STARLINK V2M, Unknown motor
Mass
730 kg wet, ~700 kg dry
Launch date (UTC)
2024-11-18 (7 months ago)
Launch vehicle
FALCON 9
Launch site
Air Force Western Test Range (AFWTR)
Object type
Payload
Rocket body
Debris
Shape & HBR
Box + 2 Pan, 29 m
Radar Cross Section
36.964 m², Large (>1 m²)

Expand to show TLE details & history

TLE from 15 hours ago
0 STARLINK-11433
1 62008U 24213A   25181.53455905  .00131036  00000-0  10677-2 0  9998
2 62008  53.1567 204.1231 0001580 101.5512 258.5683 15.69749014 36526
Epoch: 2025-06-30T12:49Z
TLE epoch observation values (Epoch: 2025-06-30T12:49:45.901Z)
Latitude
-0.00007°
Longitude
92.83881°
Altitude
360.741 km
Speed
7.694 km/s
True Right ascension
13h 36m 29s
True Declination
0° 00' 00"
Sunlit
Object was in daylight at epoch
Visualization orbit readout
Latitude
-37.08442°
Longitude
55.46528°
Altitude
372.045 km
Speed
7.686 km/s
Apparent Right ascension
07h 36m 04s
Apparent Declination
-55° 16' 10"
Sunlit
Object is in daylight
Visualization observer readout
Local Sidereal Time
15:31:30
Azimuth
227.708° WSW
Elevation
-47.583°
Doppler factor
1
Orbital elements
Apogee altitude
360.941 km
Perigee altitude
358.812 km
Semi-major axis
6,738.013 km
Eccentricity
0.00016
Inclination
53.1567°
RAAN
204.1231°
Arg. of periapsis
101.5512°
True anomaly
Unknown
Mean anomaly
258.5683°
Eccentric anomaly
Unknown
Mean motion
3.92415 °/min
Orbital period
91.74 mins
BSTAR
0.0010677
Loading maneuver chart data...
Loading SW <> Apogee altitude chart data...
Loading historical data...
Loading historical data...
Loading historical data...
Loading historical data...
Loading historical data...
Loading historical data...
Loading historical data...

STARLINK-11433 Visibility forecast

Observer location: undefined°, undefined°

Span
Click to sort rows by Start time (UTC) header in descending order
Start Az.
Max El. time (UTC)
Max El. Az.
Max El.
End time (UTC)
End Az.
5 mins2025-07-01 04:17:07.968Z228.201° WSW2025-07-01 04:20:07.968Z66.366° ENE44.686°2025-07-01 04:22:07.968Z50.638° ENE
4 mins2025-07-01 10:43:07.968Z328.779° NNW2025-07-01 10:45:07.968Z73.299° E35.424°2025-07-01 10:47:07.968Z113.232° SE
|